FW6113 Weather Reports


time (UTC)temp
C
wind
direction
speed
KPH
gust
KPH
rain 1hr
cm
rain 24hr
cm
rain mn
cm
humidity
%
barometer
mb
20260504013801 12 191 0.0 0.0 0.00 0.00 0.00 71 1017.2
20260504013301 12 191 0.0 0.0 0.00 0.00 0.00 71 1017.1
20260504013022 12 191 0.0 0.0 0.00 0.00 0.00 70 1017.2
20260504012523 12 191 0.0 0.0 0.00 0.00 0.00 69 1017.1
20260504011801 12 191 0.0 0.0 0.00 0.00 0.00 69 1017.2
20260504011302 13 191 0.0 1.6 0.00 0.00 0.00 67 1017.1
20260504010801 13 191 0.0 1.6 0.00 0.00 0.00 66 1017.1
20260504010258 13 186 0.0 1.6 0.00 0.00 0.00 66 1016.9
20260504010014 13 184 0.0 0.0 0.00 0.00 0.00 65 1016.9
20260504005253 13 184 0.0 0.0 0.00 0.00 0.00 64 1016.9
20260504004753 14 184 0.0 1.6 0.00 0.00 0.00 62 1016.8
20260504004520 15 186 0.0 1.6 0.00 0.00 0.00 61 1016.8
20260504003753 15 184 0.0 1.6 0.00 0.00 0.00 60 1016.8
20260504003253 15 182 0.0 1.6 0.00 0.00 0.00 58 1016.7
20260504002754 16 178 0.0 1.6 0.00 0.00 0.00 57 1016.6
20260504002254 16 184 0.0 1.6 0.00 0.00 0.00 55 1016.6
20260504001753 16 190 0.0 4.8 0.00 0.00 0.00 53 1016.5
20260504001253 16 197 1.6 4.8 0.00 0.00 0.00 50 1016.4
20260504000753 17 208 1.6 3.2 0.00 0.00 0.00 51 1016.3
20260504000253 17 220 1.6 3.2 0.00 0.00 0.00 49 1016.3
20260503235753 17 252 1.6 3.2 0.00 0.00 0.00 49 1016.3
20260503235253 18 266 1.6 4.8 0.00 0.00 0.00 47 1016.4
20260503234753 18 258 1.6 4.8 0.00 0.00 0.00 45 1016.4
20260503234253 18 236 1.6 4.8 0.00 0.00 0.00 44 1016.5
20260503234012 18 209 3.2 9.7 0.00 0.00 0.00 44 1016.5
20260503233253 19 199 3.2 9.7 0.00 0.00 0.00 43 1016.4
20260503232754 19 200 3.2 6.4 0.00 0.00 0.00 43 1016.4
20260503232254 20 215 3.2 11.3 0.00 0.00 0.00 43 1016.5
20260503232018 20 205 4.8 11.3 0.00 0.00 0.00 41 1016.5
20260503231253 20 208 4.8 11.3 0.00 0.00 0.00 41 1016.3
20260503230753 20 269 3.2 11.3 0.00 0.00 0.00 41 1016.4
20260503230254 21 236 1.6 8.0 0.00 0.00 0.00 42 1016.4
20260503225753 21 240 3.2 8.0 0.00 0.00 0.00 42 1016.4
20260503225253 21 245 3.2 9.7 0.00 0.00 0.00 43 1016.3
20260503224752 21 229 3.2 9.7 0.00 0.00 0.00 42 1016.4
20260503224253 20 261 3.2 8.0 0.00 0.00 0.00 41 1016.4
20260503223252 21 199 4.8 11.3 0.00 0.00 0.00 40 1016.5
20260503222753 21 250 4.8 11.3 0.00 0.00 0.00 41 1016.5
20260503222253 21 246 3.2 8.0 0.00 0.00 0.00 41 1016.5
20260503221752 21 204 4.8 11.3 0.00 0.00 0.00 42 1016.5
20260503221253 21 236 6.4 19.3 0.00 0.00 0.00 40 1016.5
20260503221013 21 220 4.8 19.3 0.00 0.00 0.00 40 1016.6
20260503220253 21 225 3.2 11.3 0.00 0.00 0.00 40 1016.6
20260503215753 21 212 3.2 11.3 0.00 0.00 0.00 39 1016.7
20260503215515 21 242 4.8 12.9 0.00 0.00 0.00 40 1016.7
20260503214752 21 223 4.8 12.9 0.00 0.00 0.00 40 1016.6
20260503214253 21 268 4.8 12.9 0.00 0.00 0.00 39 1016.8
20260503213753 21 213 4.8 12.9 0.00 0.00 0.00 40 1016.7
20260503213253 21 236 6.4 12.9 0.00 0.00 0.00 38 1016.7
20260503212753 21 227 6.4 12.9 0.00 0.00 0.00 39 1016.8
20260503212249 21 320 6.4 12.9 0.00 0.00 0.00 39 1016.9
20260503211748 21 269 4.8 11.3 0.00 0.00 0.00 39 1016.8
20260503211248 21 229 4.8 11.3 0.00 0.00 0.00 39 1016.9
20260503210749 21 195 6.4 14.5 0.00 0.00 0.00 38 1016.9
20260503210510 21 324 6.4 17.7 0.00 0.00 0.00 38 1017.1
20260503205748 21 243 6.4 17.7 0.00 0.00 0.00 37 1017.3
20260503205510 21 174 4.8 11.3 0.00 0.00 0.00 39 1017.2
20260503205008 21 275 6.4 12.9 0.00 0.00 0.00 38 1017.3
20260503204247 21 221 4.8 12.9 0.00 0.00 0.00 41 1017.4
20260503203742 20 282 4.8 12.9 0.00 0.00 0.00 38 1017.4
20260503203242 20 93 4.8 14.5 0.00 0.00 0.00 40 1017.5
20260503202742 20 272 6.4 14.5 0.00 0.00 0.00 39 1017.6
20260503202242 20 263 6.4 16.1 0.00 0.00 0.00 38 1017.6
20260503201742 20 95 6.4 16.1 0.00 0.00 0.00 40 1017.8
20260503201242 20 238 4.8 16.1 0.00 0.00 0.00 37 1017.9
20260503200741 21 234 4.8 12.9 0.00 0.00 0.00 41 1018.1
20260503200239 21 221 4.8 12.9 0.00 0.00 0.00 39 1018.2
20260503195957 21 199 4.8 9.7 0.00 0.00 0.00 38 1018.2
20260503195239 20 253 4.8 12.9 0.00 0.00 0.00 37 1018.3
20260503194735 20 255 4.8 12.9 0.00 0.00 0.00 37 1018.4
20260503194234 20 261 4.8 12.9 0.00 0.00 0.00 39 1018.4
20260503193734 20 216 6.4 12.9 0.00 0.00 0.00 37 1018.4
20260503193235 20 246 6.4 16.1 0.00 0.00 0.00 38 1018.4
20260503192734 20 238 8.0 16.1 0.00 0.00 0.00 36 1018.6
20260503192452 20 267 6.4 14.5 0.00 0.00 0.00 37 1018.6
20260503191733 21 62 4.8 12.9 0.00 0.00 0.00 37 1018.6
20260503191723 20 279 3.2 9.7 0.00 0.00 0.00 38 1018.7
20260503190729 20 236 4.8 11.3 0.00 0.00 0.00 38 1018.8
20260503190454 20 275 4.8 11.3 0.00 0.00 0.00 37 1018.8
20260503185728 20 252 4.8 16.1 0.00 0.00 0.00 39 1019.0
20260503185444 20 231 4.8 12.9 0.00 0.00 0.00 37 1019.1
20260503185327 20 180 6.4 16.1 0.00 0.00 0.00 38 1019.1
20260503184228 20 302 4.8 14.5 0.00 0.00 0.00 38 1019.1
20260503183729 20 287 4.8 14.5 0.00 0.00 0.00 36 1019.3
20260503183227 20 257 6.4 14.5 0.00 0.00 0.00 38 1019.3
20260503182727 20 285 6.4 14.5 0.00 0.00 0.00 37 1019.4
20260503182225 20 201 6.4 16.1 0.00 0.00 0.00 39 1019.3
20260503181727 20 234 4.8 16.1 0.00 0.00 0.00 37 1019.3
20260503181226 19 280 4.8 12.9 0.00 0.00 0.00 41 1019.3
20260503180724 19 238 6.4 12.9 0.00 0.00 0.00 39 1019.4
20260503180443 19 184 4.8 12.9 0.00 0.00 0.00 40 1019.5
20260503175721 18 285 6.4 14.5 0.00 0.00 0.00 43 1019.4
20260503175221 18 173 6.4 14.5 0.00 0.00 0.00 39 1019.5
20260503174720 18 269 6.4 14.5 0.00 0.00 0.00 40 1019.5
20260503174219 19 223 4.8 14.5 0.00 0.00 0.00 43 1019.5
20260503173718 18 267 4.8 11.3 0.00 0.00 0.00 42 1019.5
20260503173218 18 190 6.4 14.5 0.00 0.00 0.00 44 1019.6
20260503172718 18 238 6.4 14.5 0.00 0.00 0.00 43 1019.7
20260503172218 18 202 4.8 14.5 0.00 0.00 0.00 42 1019.9
20260503171718 18 126 4.8 8.0 0.00 0.00 0.00 43 1020.0
20260503171437 17 229 6.4 17.7 0.00 0.00 0.00 43 1020.2
20260503170718 17 269 6.4 17.7 0.00 0.00 0.00 43 1020.3
20260503170218 17 242 4.8 16.1 0.00 0.00 0.00 42 1020.3
20260503150745 15 171 3.2 9.7 0.00 0.00 0.00 52 1021.0
20260503150246 15 180 4.8 9.7 0.00 0.00 0.00 52 1021.1
20260503140241 13 87 3.2 9.7 0.00 0.00 0.00 59 1021.0
20260503131234 11 95 1.6 3.2 0.00 0.00 0.00 66 1020.8
20260503130733 11 88 1.6 4.8 0.00 0.00 0.00 68 1020.9
20260503130233 11 74 1.6 4.8 0.00 0.00 0.00 67 1020.9
20260503110712 4 207 0.0 0.0 0.00 0.00 0.00 89 1019.9
20260503110211 4 207 0.0 0.0 0.00 0.00 0.00 89 1019.8
20260503100201 4 190 0.0 0.0 0.00 0.00 0.00 88 1019.1
20260503090409 4 182 0.0 0.0 0.00 0.00 0.00 88 1018.7
20260503081140 5 183 0.0 0.0 0.00 0.00 0.00 86 1018.1
20260503080637 5 183 0.0 0.0 0.00 0.00 0.00 86 1018.1
20260503080354 5 183 0.0 0.0 0.00 0.00 0.00 86 1018.0
20260503072637 5 183 0.0 0.0 0.00 0.00 0.00 84 1017.9
20260503072133 5 183 0.0 0.0 0.00 0.00 0.00 84 1017.9
20260503071632 5 183 0.0 0.0 0.00 0.00 0.00 84 1017.8
20260503071133 5 183 0.0 0.0 0.00 0.00 0.00 84 1017.8
20260503070633 5 183 0.0 0.0 0.00 0.00 0.00 84 1017.7
20260503070133 5 183 0.0 0.0 0.00 0.00 0.00 83 1017.6
20260503055129 6 188 0.0 1.6 0.00 0.00 0.00 81 1017.4
20260503054628 6 191 0.0 1.6 0.00 0.00 0.00 81 1017.5
20260503054128 6 188 0.0 1.6 0.00 0.00 0.00 81 1017.5
20260503053629 6 191 1.6 1.6 0.00 0.00 0.00 80 1017.5
20260503053128 6 192 1.6 3.2 0.00 0.00 0.00 80 1017.5
20260503052629 6 196 1.6 3.2 0.00 0.00 0.00 80 1017.5
20260503052129 6 200 0.0 3.2 0.00 0.00 0.00 80 1017.4
20260503051628 6 215 0.0 1.6 0.00 0.00 0.00 80 1017.4
20260503051129 6 217 0.0 0.0 0.00 0.00 0.00 80 1017.4
20260503050629 6 217 0.0 0.0 0.00 0.00 0.00 80 1017.3
20260503050354 6 216 0.0 0.0 0.00 0.00 0.00 81 1017.3
20260503045629 6 216 0.0 0.0 0.00 0.00 0.00 81 1017.2
20260503045129 6 213 0.0 0.0 0.00 0.00 0.00 81 1017.2
20260503044628 6 213 0.0 0.0 0.00 0.00 0.00 82 1017.2
20260503044129 6 213 0.0 0.0 0.00 0.00 0.00 82 1017.3
20260503043629 6 212 0.0 0.0 0.00 0.00 0.00 82 1017.3
20260503043128 6 211 0.0 0.0 0.00 0.00 0.00 82 1017.3
20260503042629 6 211 0.0 0.0 0.00 0.00 0.00 81 1017.4
20260503042129 6 211 0.0 0.0 0.00 0.00 0.00 81 1017.3
20260503041629 6 211 0.0 0.0 0.00 0.00 0.00 81 1017.2
20260503041126 6 211 0.0 0.0 0.00 0.00 0.00 80 1017.2
20260503040627 6 211 0.0 0.0 0.00 0.00 0.00 80 1017.2
20260503040127 6 211 0.0 0.0 0.00 0.00 0.00 80 1017.2
20260503035627 6 211 0.0 0.0 0.00 0.00 0.00 80 1017.1
20260503035127 6 211 0.0 0.0 0.00 0.00 0.00 79 1017.1
20260503034626 7 211 0.0 0.0 0.00 0.00 0.00 79 1017.1
20260503034124 7 211 0.0 0.0 0.00 0.00 0.00 79 1016.8
20260503033623 7 211 0.0 0.0 0.00 0.00 0.00 78 1016.8
20260503033123 7 211 0.0 0.0 0.00 0.00 0.00 78 1016.7
20260503032623 7 211 0.0 0.0 0.00 0.00 0.00 77 1016.7
20260503032123 7 211 0.0 0.0 0.00 0.00 0.00 76 1016.7
20260503031623 7 211 0.0 0.0 0.00 0.00 0.00 76 1016.7
20260503031123 7 211 0.0 0.0 0.00 0.00 0.00 76 1016.6
20260503030623 7 211 0.0 0.0 0.00 0.00 0.00 75 1016.6
20260503030348 8 211 0.0 0.0 0.00 0.00 0.00 75 1016.6
20260503025619 8 211 0.0 0.0 0.00 0.00 0.00 74 1016.5
20260503025336 8 211 0.0 0.0 0.00 0.00 0.00 74 1016.6
20260503024838 8 211 0.0 0.0 0.00 0.00 0.00 76 1016.5
20260503024341 8 211 0.0 0.0 0.00 0.00 0.00 78 1016.4
20260503023619 8 211 0.0 0.0 0.00 0.00 0.00 78 1016.3
20260503023338 8 211 0.0 0.0 0.00 0.00 0.00 77 1016.2
20260503022619 8 211 0.0 0.0 0.00 0.00 0.00 77 1016.1
20260503022119 8 209 0.0 0.0 0.00 0.00 0.00 77 1016.0
20260503021849 9 208 0.0 0.0 0.00 0.00 0.00 76 1015.9
20260503021112 9 207 0.0 0.0 0.00 0.00 0.00 75 1015.9
20260503021057 9 207 0.0 0.0 0.00 0.00 0.00 76 1015.8
20260503020110 9 204 0.0 0.0 0.00 0.00 0.00 76 1015.9
20260503015611 9 201 0.0 0.0 0.00 0.00 0.00 76 1015.8
20260503015111 9 196 0.0 1.6 0.00 0.00 0.00 75 1015.7
20260503014611 9 194 0.0 1.6 0.00 0.00 0.00 74 1015.6
20260503014111 10 194 1.6 3.2 0.00 0.00 0.00 74 1015.5